Regional Weather Roundup
Issued by NWS Midland/Odessa, TX

Skip options and go directly to product.
Home | Oldest Version | Previous Version | Current Version | All | Text Only | Save Text | Print | Product List | Glossary Off

Skip product version selection by date and time.   

289
ASUS44 KMAF 040510
RWRMAF
MIDLAND AREA WEATHER ROUNDUP
NATIONAL WEATHER SERVICE MIDLAND TX
1200 AM CDT SAT JUL 04 2015

...IN SOUTHWEST TEXAS AND SOUTHEAST NEW MEXICO...

CITY           SKY/WX    TMP DP  RH WIND       PRES   REMARKS
ALPINE         MOCLDY    72  62  69 SE12      30.15R
ANDREWS        FAIR      74  62  64 SE7       30.05S
ARTESIA        PTCLDY    75  63  64 CALM      30.07R
BIG SPRING     CLOUDY    82  61  49 SE9       30.05R
CARLSBAD       PTCLDY    74  64  71 N3        30.04R
DRYDEN           N/A     81  66  60 VRB5      29.97R
FORT STOCKTON  PTCLDY    76  63  64 SE7       30.04R
GUAD PASS      MOCLDY    70  59  68 NE16      30.18R
HOBBS          PTCLDY    73  63  68 CALM      30.09R
MARFA          MOCLDY   N/A N/A N/A SE8       30.13R
MIDLAND AIRPK  PTCLDY    80  61  52 SE8       30.04R
MIDLAND INTL   PTCLDY    77  63  61 SE7       30.04R
ODESSA         PTCLDY    78  61  55 S9        30.05R
PECOS          MOCLDY    81  60  49 SE12      30.00R
PRESIDIO       FAIR      82  63  51 MISG      29.95R
SEMINOLE       PTCLDY    74  60  61 S6        30.06S
SNYDER         PTCLDY    76  64  65 SE5       30.03R
WINK           MOCLDY    81  61  50 SE9       30.00R
$$
...OTHER STATIONS IN TEXAS...

CITY           SKY/WX    TMP DP  RH WIND       PRES   REMARKS
ABILENE        MOCLDY    77  64  64 SE8       29.99R
AMARILLO       LGT RAIN  70  62  76 SW24G32   30.04F
AUSTIN         PTCLDY    74  73  97 S6        29.97F
BROWNSVILLE    CLOUDY    81  77  88 SE9       29.96S
CORPUS CHRISTI MOCLDY    80  77  90 S9        29.96R
DALLAS FTW     MOCLDY    83  69  62 S10       29.93R
DEL RIO        MOCLDY    82  71  69 E15G23    29.92R
EL PASO        MOCLDY    82  59  45 E14       30.01R
HOUSTON INT    MOCLDY    81  76  84 S6        29.99R
LUBBOCK        CLOUDY    73  64  73 SE5       30.07R
SAN ANGELO     MOCLDY    78  64  61 S6        29.99R
SAN ANTONIO    MOCLDY    79  71  76 SE10      30.00R
WACO           PTCLDY    81  73  76 S14       29.96R
WICHITA FALLS  NOT AVBL
$$
...OTHER LOCATIONS IN NEW MEXICO...

CITY           SKY/WX    TMP DP  RH WIND       PRES   REMARKS
ALAMAGORDO     CLOUDY    73  66  78 SE7       30.06S
ALBUQUERQUE    PTCLDY    75  55  49 S7        30.14R
CANNON AFB     CLOUDY    72  65  79 S5        30.13R
CLOVIS         CLOUDY    70  61  73 NE16G22     N/A
HOLLOMAN AFB   DRIZZLE   72  66  83 S3        30.04R
ROSWELL        MOCLDY    73  60  63 SE5       30.06R
RUIDOSO        MOCLDY    64  55  72 CALM      30.29R
SANTA FE       MOCLDY    66  53  63 CALM      30.21S
TRUTH OR CONSE MOCLDY    76  60  57 NE7       30.10R
TUCUMCARI      CLOUDY    68  59  73 E23G32    30.13R
$$

USA.gov is the U.S. government's official web portal to all federal, state and local government web resources and services.